Location: Dresden
(51.0483°N, 13.7137°E)
Time: 13:56:33
(UTC+01:00)

OTV 5 (USA 277) - Visible Passes

Search period start: 22 February 2018 00:00
Search period end: 04 March 2018 00:00
Orbit: 404 x 417 km, 43.0° (Epoch: 07 September)

Date Brightness Start Highest point End Pass type
(mag) Time Alt. Az. Time Alt. Az. Time Alt. Az.
23 Feb ? 05:53:32 10° SSW 05:55:29 15° SSE 05:57:26 10° SE visible
24 Feb ? 05:03:42 11° S 05:04:37 12° SSE 05:06:03 10° SE visible
25 Feb ? 05:47:53 10° SW 05:50:18 19° S 05:52:43 10° SE visible
26 Feb ? 04:59:06 17° S 04:59:24 17° SSE 05:01:39 10° SE visible
27 Feb ? 04:10:22 10° SE 04:10:22 10° SE 04:10:29 10° SE visible
27 Feb ? 05:43:07 13° SW 05:45:09 20° S 05:47:40 10° SE visible
28 Feb ? 04:54:23 20° S 04:54:23 20° S 04:56:44 10° SE visible
01 Mar ? 04:05:38 11° SE 04:05:38 11° SE 04:05:45 10° SE visible
01 Mar ? 05:38:23 13° SW 05:40:00 18° S 05:42:19 10° SE visible
02 Mar ? 04:49:40 19° S 04:49:40 19° S 04:51:33 10° SE visible
03 Mar ? 05:33:44 12° SW 05:34:47 13° SSW 05:36:28 10° SSE visible
